Theta_e
289 290 290 289 289 288 288 289 291 292 292 293 293 291 291 291 290 289 290 290 291 292
287 287 287 287 287 287 287 289 289 290 290 291 291 289 289 289 287 287 288 289 289 289
285 285 285 285 284 284 285 286 287 288 288 288 288 287 286 286 286 285 286 288 287 287
283 283 283 283 283 283 284 285 285 287 286 286 286 285 284 284 284 283 284 286 285 284
282 282 281 281 281 282 282 283 284 285 285 284 285 284 283 283 283 281 282 284 285 284
280 280 280 280 280 281 281 281 282 284 283 282 283 283 283 283 282 281 282 283 283 283
279 279 279 279 280 280 280 280 281 282 281 282 282 282 283 282 281 280 280 281 281 282
279 278 279 279 279 279 279 279 280 280 280 280 280 282 282 281 280 278 278 279 279 280
278 278 278 279 279 279 278 278 278 278 278 278 279 282 284 283 281 279 278 277 278 278
277 277 277 278 278 277 276 277 277 277 277 277 278 282 283 282 281 279 278 277 277 277
276 276 277 277 276 275 275 276 276 277 277 277 278 281 282 282 279 279 278 278 277 277
276 276 275 275 274 274 274 275 276 277 276 277 277 280 281 280 278 278 278 278 278 277
275 275 274 274 273 273 274 274 275 275 275 275 276 278 279 279 277 276 276 277 278 278
273 273 273 272 271 272 271 272 271 272 273 273 274 274 277 278 276 275 275 276 275 276
Wind_Speed
10 6 7 8 6 6 6 6 9 9 9 9 9 10 9 7 8 9 7 8 8 7
8 9 7 8 7 5 6 7 9 8 8 9 9 9 9 7 9 9 8 6 8 8
7 6 5 5 7 7 7 8 8 8 8 9 8 9 8 6 8 9 7 7 9 8
5 6 6 6 7 7 6 7 8 8 8 9 7 8 7 8 9 10 9 8 9 10
6 6 6 6 6 6 7 7 7 7 7 8 5 6 8 9 9 10 10 10 10 10
5 5 6 5 6 6 7 6 6 7 7 7 7 5 7 7 9 10 10 10 10 10
5 5 4 5 5 6 5 5 7 6 6 7 7 6 6 7 7 9 9 9 10 10
4 4 4 5 5 5 5 6 6 6 6 6 6 5 7 5 8 8 9 8 9 10
4 4 3 4 4 4 5 5 4 5 5 7 6 14 15 13 6 7 8 9 9 10
2 2 3 3 3 5 6 6 6 6 6 6 6 15 16 17 7 5 7 8 8 9
2 2 3 3 4 5 4 5 6 6 6 7 7 16 16 17 9 5 7 7 7 8
3 3 3 4 4 5 5 5 5 6 7 7 8 16 18 15 8 9 9 9 5 7
2 3 3 4 4 3 4 6 6 8 7 8 8 15 17 15 8 11 8 9 8 11
2 3 4 3 2 3 5 5 5 7 6 7 6 9 17 17 9 9 9 8 8 6
Wind_Direction
36 37 38 29 23 19 12 9 4 9 14 18 20 16 10 3 11 360 355 349 357 345
36 38 30 28 21 11 8 11 6 7 12 14 39 17 11 8 7 355 350 358 355 352
32 31 26 27 24 11 4 0 8 6 14 16 33 11 11 8 6 355 351 2 1 2
36 30 27 27 18 11 1 358 9 359 9 17 23 11 4 4 5 352 345 338 4 356
28 24 23 16 6 2 1 4 355 353 13 8 356 10 4 2 357 348 340 333 346 338
20 21 16 4 357 3 6 350 349 4 9 356 347 345 355 358 353 342 341 345 341 341
14 15 3 1 4 4 350 356 358 0 355 349 335 336 346 358 356 344 340 343 336 333
9 7 3 3 359 349 357 358 349 352 347 339 341 338 340 343 348 341 336 334 335 330
5 357 357 347 339 345 347 335 333 349 344 341 341 330 338 339 339 330 331 332 331 329
356 348 349 333 348 357 345 335 333 327 323 317 316 329 330 337 328 320 316 313 316 328
353 332 334 340 351 333 320 313 313 307 310 311 308 330 329 329 325 295 296 294 298 311
299 314 335 332 329 319 321 319 316 320 315 311 316 328 328 328 327 317 315 315 310 310
296 317 313 313 315 297 302 307 316 317 319 315 318 333 329 331 329 314 321 321 317 316
277 287 275 290 280 288 301 311 306 307 306 301 315 326 329 331 329 320 312 322 316 310